Location: Newark
(18.8198°N, 82.1672°E)
Time: 20:49:14
(UTC+00:00)

OTV 5 (USA 277) - Pass Details

Date: 21 August 2019
Orbit: 310 x 324 km, 54.5° (Epoch: 17 October)

Event Time Altitude Azimuth Distance (km) Brightness Sun altitude
Rises 23:45:00 0° 337° (NNW) 2,024 ? -7.6°
Reaches altitude 10° 23:47:05 10° 349° (N) 1,198 ? -7.1°
Maximum altitude 23:49:28 29° 53° (NE) 604 ? -6.5°
Drops below altitude 10° 23:51:51 10° 117° (ESE) 1,201 ? -6.0°
Sets 23:53:56 0° 129° (SE) 2,030 ? -5.5°
